sat.trackr.live / text

‹ back to catalog

STARLINK-5827

NORAD 57066 · 2023-088U

PAYLOAD ACTIVE UNKNOWN

§ Identity

Operator
Country
US
Launch date
2023-06-22
Launch site
AFWTR
Launch vehicle
Mass (kg)
RCS (m²)

Purposes: comms

External: N2YO · Heavens-Above · Gunter

§ Orbital elements

Epoch: 2026-05-25T03:05:17.709216Z

Period
94.27 min
Inclination
43.0049°
Eccentricity
0.0000951
Mean motion
15.27576615 rev/d
Perigee alt
482.4 km
Apogee alt
483.7 km
Semi-major
6,861.2 km
B*
2.5206e-5
RAAN
38.8886°
Arg perigee
257.0815°
Mean anomaly
102.9930°
Rev number
16,104

§ Raw data

STARLINK-58271 57066U 23088U   26145.12867719  .00000432  00000+0  25206-4 0  99912 57066  43.0049  38.8886 0000951 257.0815 102.9930 15.27576615161041

JSON: /api/v1/satellites/57066 · /tle

For live sub-satellite position, see the globe view (requires WebGL).

§ Visibility from observer

Set your observer location to see the next 7 days of passes ≥ 10°. The values pass through the URL so the page stays shareable.

No JS? Fill the form by hand. The geolocation button needs JavaScript.